OAO 2 (3597 NORAD) Tracking and Keplerian Element Data

This shows tracking and keplerian element data for the satellite.

Feedback or suggestion? Click here.




ElementValue
Catalog3597
NameOAO 2
Epoch Orbit96179
Epoch Day34.99298662
Epoch Year2025
RAAN330.703
Inclination34.9946
Eccentricity0.0006214
Argument of Perigee244.1104
Mean Anonmoly115.8946
Mean Motion14.46972698
Decay Rate6.1E-06
L11 03597U 68110A 25034.99298662 .00000610 00000+0 17068-3 0 9996
L22 03597 34.9946 330.7030 0006214 244.1104 115.8946 14.46972698961798



Live tracking and technical data element details for OAO 2 (NORAD 3597). OAO 2 can be tracked NOW for your location showing map with azimuth and elevation plus other details from your city location.







IsCatalogInMostPopularTable: catalog: 3597, numindb: 344
Update: records affected: 1



GetName: 3597 OAO 2

Hit Count: updated at: Sat, 24 May 2025 17:03:38 GMT